STARLINK-32737

Last updated on Wed Jan 29 2025 00:02:04 GMT+0000 (Coordinated Universal Time)

1 62444U 24251N 25028.50008458 .00005674 00000+0 10992-3 0 9996 2 62444 53.1609 66.4879 0001357 101.8744 258.2417 15.49332470 5784
UTC large
Height (km)
Speed (km/s)
/
Latitude / Longitude
Inclination (degrees)
Orbital Period (minutes)
Azimuth
Elevation
Range (km)
Doppler Factor

Next 0 passes for location: London (51.5072 / 0.1276)

Sorry there are no passes over London.